St. Francis, KS

11:57 PM CDT on September 24, 2017 (GMT -0500)
Cheyenne County Municipal

Weather History for KSYF - March, 2013

Change the Weather History Date:

Saturday, March 9, 2013

  Actual Average Record
Temperature  
Mean Temperature 39 °F -  
Max Temperature 46 °F 57 °F 79 °F (2014)
Min Temperature 31 °F 25 °F 25 °F (2015)
Degree Days  
Heating Degree Days 26    
Moisture  
Dew Point 34 °F    
Average Humidity 90    
Maximum Humidity 96    
Minimum Humidity 82    
Precipitation  
Precipitation 0.00 in - - ()
Sea Level Pressure  
Sea Level Pressure 29.66 in    
Wind  
Wind Speed 11 mph (NNW)    
Max Wind Speed 33 mph    
Max Gust Speed 45 mph    
Visibility 5 miles    
Events Fog , Snow    
Averages and records for this station are not official NWS values.
T = Trace of Precipitation, MM = Missing Value Source: NWS Daily Summary

Daily Weather History Graph

Daily Weather History Graph

Search for Another Location

Airport or City:

Trip Planner

Search our weather history database for the weather conditions in past years. The results will help you decide how hot, cold, wet, or windy it might be!

Date:

Astronomy

Mar. 09, 2013 Rise Set
Actual Time 7:07 AM CST 6:48 PM CST
Civil Twilight 6:40 AM CST 7:15 PM CST
Nautical Twilight 6:09 AM CST 7:46 PM CST
Astronomical Twilight 5:38 AM CST 8:17 PM CST
Moon 5:32 AM CST (3/9) 4:52 PM CST (3/9)
Length of Visible Light 12h 34m
Length of Day
11h 40m
Waning Crescent, 5% of the Moon is Illuminated
Mar 9
Waning Crescent
Mar 11
New
Mar 19
First Quarter
Mar 27
Full
Apr 2
Last Quarter

Hourly Weather History & Observations

Time (CST) Temp. Windchill Dew Point Humidity Pressure Visibility Wind Dir Wind Speed Gust Speed Precip Events Conditions
12:15 AM 44.8 °F 42.4 °F 39.6 °F 82% 29.60 in 10.0 mi North 4.6 mph - N/A   Overcast
12:35 AM 44.6 °F - 40.1 °F 84% 29.60 in 10.0 mi Calm Calm - N/A   Scattered Clouds
12:55 AM 46.8 °F - 41.9 °F 83% 29.59 in 10.0 mi West 3.5 mph - N/A   Clear
1:15 AM 44.8 °F 42.4 °F 41.2 °F 87% 29.59 in 10.0 mi West 4.6 mph - N/A   Clear
1:35 AM 42.3 °F - 39.2 °F 89% 29.60 in 7.0 mi Calm Calm - N/A   Clear
1:55 AM 40.8 °F 37.8 °F 37.9 °F 89% 29.60 in 7.0 mi WSW 4.6 mph - N/A   Clear
2:15 AM 40.1 °F 35.3 °F 37.8 °F 91% 29.60 in 7.0 mi WSW 6.9 mph - N/A   Clear
2:35 AM 39.7 °F 35.6 °F 37.4 °F 91% 29.60 in 7.0 mi WSW 5.8 mph - N/A   Clear
2:55 AM 39.6 °F - 37.4 °F 92% 29.58 in 7.0 mi Calm Calm - N/A   Clear
3:15 AM 38.7 °F - 36.5 °F 92% 29.56 in 7.0 mi Calm Calm - N/A   Scattered Clouds
3:35 AM 38.8 °F 33.2 °F 36.9 °F 93% 29.58 in 5.0 mi SSW 8.1 mph - N/A   Mostly Cloudy
3:55 AM 40.1 °F 36.1 °F 38.3 °F 93% 29.57 in 7.0 mi SSW 5.8 mph - N/A   Overcast
4:15 AM 40.6 °F 38.6 °F 38.3 °F 91% 29.56 in 7.0 mi SW 3.5 mph - N/A   Overcast
4:35 AM 41.5 °F 38.6 °F 39.4 °F 92% 29.56 in 5.0 mi SW 4.6 mph - N/A   Overcast
4:55 AM 41.9 °F 40.0 °F 39.2 °F 90% 29.55 in 5.0 mi SW 3.5 mph - N/A   Overcast
5:15 AM 42.3 °F 38.6 °F 39.9 °F 91% 29.56 in 5.0 mi WSW 5.8 mph - N/A   Overcast
5:35 AM 42.8 °F 38.0 °F 40.5 °F 91% 29.55 in 2.0 mi West 8.1 mph - N/A   Overcast
5:55 AM 42.4 °F 39.6 °F 40.3 °F 92% 29.56 in 0.8 mi West 4.6 mph - N/A   Overcast
6:15 AM 42.1 °F 38.4 °F 40.1 °F 93% 29.56 in 0.5 mi West 5.8 mph - N/A Fog Fog
6:35 AM 42.1 °F 37.1 °F 40.3 °F 93% 29.56 in 0.2 mi West 8.1 mph - N/A Fog Fog
6:55 AM 42.1 °F 37.1 °F 40.3 °F 93% 29.56 in 0.2 mi West 8.1 mph - N/A Fog Fog
7:15 AM 41.9 °F 35.9 °F 40.1 °F 93% 29.56 in 0.8 mi NW 10.4 mph - N/A   Overcast
7:35 AM 41.5 °F 35.4 °F 40.1 °F 95% 29.56 in 0.5 mi NW 10.4 mph - N/A Fog Fog
7:55 AM 40.8 °F 33.3 °F 39.2 °F 94% 29.56 in 3.0 mi NW 13.8 mph 19.6 mph N/A   Overcast
8:15 AM 40.1 °F 30.5 °F 38.5 °F 94% 29.57 in 7.0 mi NNW 20.7 mph 26.5 mph N/A   Overcast
8:35 AM 39.4 °F 31.4 °F 37.2 °F 92% 29.58 in 10.0 mi North 13.8 mph 23.0 mph N/A   Overcast
8:55 AM 39.9 °F 31.8 °F 36.7 °F 88% 29.58 in 7.0 mi NNW 15.0 mph - N/A   Overcast
9:15 AM 39.6 °F 32.1 °F 36.9 °F 90% 29.58 in 7.0 mi NNW 12.7 mph - N/A   Overcast
9:35 AM 40.1 °F 33.2 °F 36.7 °F 88% 29.59 in 10.0 mi NNW 11.5 mph 16.1 mph N/A   Overcast
9:55 AM 40.3 °F 33.4 °F 36.5 °F 86% 29.59 in 10.0 mi North 11.5 mph 21.9 mph N/A   Overcast
10:15 AM 40.5 °F 32.8 °F 36.0 °F 84% 29.60 in 10.0 mi NNW 13.8 mph - N/A   Overcast
10:35 AM 40.1 °F 31.6 °F 35.1 °F 82% 29.60 in 10.0 mi North 16.1 mph 21.9 mph N/A   Overcast
10:55 AM 39.7 °F 30.6 °F 34.7 °F 82% 29.61 in 10.0 mi NNW 18.4 mph 21.9 mph N/A   Overcast
11:15 AM 39.4 °F 29.5 °F 34.3 °F 82% 29.61 in 10.0 mi North 20.7 mph 25.3 mph N/A   Overcast
11:35 AM 38.5 °F 28.9 °F 34.7 °F 86% 29.61 in 4.0 mi NNW 18.4 mph 23.0 mph N/A   Overcast
11:55 AM 37.6 °F 27.7 °F 34.5 °F 89% 29.61 in 2.5 mi NNW 18.4 mph 24.2 mph N/A   Overcast
12:15 PM 36.9 °F 25.6 °F 33.8 °F 89% 29.61 in 4.0 mi NNW 23.0 mph 28.8 mph N/A   Overcast
12:35 PM 36.1 °F 25.2 °F 32.9 °F 88% 29.62 in 5.0 mi North 20.7 mph 26.5 mph N/A   Overcast
12:55 PM 35.6 °F 24.0 °F 31.6 °F 85% 29.61 in 10.0 mi North 23.0 mph 33.4 mph N/A   Overcast
1:15 PM 35.2 °F 23.5 °F 30.9 °F 84% 29.63 in 10.0 mi North 23.0 mph 28.8 mph N/A   Overcast
1:35 PM 34.2 °F 22.1 °F 30.2 °F 85% 29.64 in 10.0 mi North 23.0 mph 29.9 mph N/A   Overcast
1:55 PM 33.8 °F 22.2 °F 29.5 °F 84% 29.64 in 7.0 mi North 20.7 mph 28.8 mph N/A   Overcast
2:15 PM 33.3 °F 20.9 °F 29.3 °F 85% 29.64 in 7.0 mi North 23.0 mph 29.9 mph N/A   Overcast
2:35 PM 32.9 °F 20.1 °F 29.1 °F 86% 29.65 in 5.0 mi North 24.2 mph 28.8 mph N/A   Overcast
2:55 PM 32.2 °F 20.0 °F 28.4 °F 86% 29.66 in 4.0 mi North 20.7 mph 27.6 mph N/A   Overcast
3:15 PM 32.2 °F 19.1 °F 28.4 °F 86% 29.66 in 3.0 mi North 24.2 mph 32.2 mph N/A   Overcast
3:35 PM 32.0 °F 19.5 °F 28.8 °F 88% 29.66 in 5.0 mi North 21.9 mph 31.1 mph N/A   Overcast
3:55 PM 32.2 °F 20.4 °F 28.4 °F 86% 29.66 in 7.0 mi North 19.6 mph 31.1 mph N/A   Overcast
4:15 PM 32.2 °F 20.0 °F 28.9 °F 88% 29.68 in 5.0 mi North 20.7 mph 26.5 mph N/A   Overcast
4:35 PM 32.0 °F 20.1 °F 28.8 °F 88% 29.69 in 2.5 mi North 19.6 mph 34.5 mph N/A Snow Light Snow
4:55 PM 32.0 °F 19.5 °F 29.1 °F 89% 29.70 in 1.2 mi North 21.9 mph 31.1 mph N/A Snow Light Snow
5:15 PM 32.0 °F 19.2 °F 29.3 °F 90% 29.71 in 1.2 mi North 23.0 mph 34.5 mph N/A Snow Light Snow
5:35 PM 32.0 °F 20.8 °F 29.3 °F 90% 29.72 in 2.5 mi North 17.3 mph 29.9 mph N/A   Overcast
5:55 PM 32.0 °F 19.5 °F 29.8 °F 92% 29.72 in 3.0 mi North 21.9 mph 27.6 mph N/A   Overcast
6:15 PM 32.0 °F 20.5 °F 30.2 °F 93% 29.73 in 3.0 mi North 18.4 mph 27.6 mph N/A Snow Light Snow
6:35 PM 32.5 °F 19.6 °F 30.7 °F 93% 29.74 in 2.5 mi North 24.2 mph 33.4 mph N/A Snow Light Snow
6:55 PM 32.9 °F 21.6 °F 31.1 °F 93% 29.76 in 3.0 mi North 18.4 mph 26.5 mph N/A Snow Light Snow
7:15 PM 32.9 °F 22.4 °F 31.1 °F 93% 29.77 in 1.8 mi North 16.1 mph 27.6 mph N/A Snow Light Snow
7:35 PM 32.9 °F 22.4 °F 31.6 °F 95% 29.78 in 1.0 mi North 16.1 mph 23.0 mph N/A Snow Light Snow
7:55 PM 33.1 °F 21.5 °F 32.0 °F 96% 29.79 in 0.8 mi North 19.6 mph 25.3 mph N/A Snow Snow
8:15 PM 33.1 °F 20.3 °F 32.0 °F 96% 29.81 in 0.8 mi North 24.2 mph 35.7 mph N/A Snow Snow
8:55 PM 32.5 °F 18.8 °F 31.6 °F 96% 29.83 in 0.8 mi North 27.6 mph 43.7 mph N/A Snow Snow
9:15 PM 32.4 °F 17.7 °F 31.5 °F 96% 29.84 in 1.0 mi North 32.2 mph 41.4 mph N/A Snow Snow
9:35 PM 32.2 °F 18.6 °F 31.3 °F 96% 29.86 in 1.0 mi North 26.5 mph 36.8 mph N/A Snow Snow
9:55 PM 32.4 °F 20.6 °F 31.5 °F 96% 29.88 in 1.0 mi North 19.6 mph 28.8 mph N/A Snow Snow
10:15 PM 32.4 °F 19.7 °F 31.5 °F 96% 29.89 in 1.5 mi North 23.0 mph 31.1 mph N/A Snow Light Snow
10:35 PM 32.5 °F 20.2 °F 31.5 °F 96% 29.90 in 2.5 mi North 21.9 mph 31.1 mph N/A Snow Light Snow
10:55 PM 32.7 °F 19.9 °F 30.9 °F 93% 29.90 in 3.0 mi North 24.2 mph 32.2 mph N/A Snow Light Snow
11:15 PM 32.5 °F 19.9 °F 30.7 °F 93% 29.91 in 1.5 mi North 23.0 mph 35.7 mph N/A Snow Light Snow
11:35 PM 32.2 °F 17.2 °F 29.5 °F 90% 29.92 in 2.0 mi North 33.4 mph 44.9 mph N/A Snow Light Snow
11:55 PM 31.6 °F 16.9 °F 29.1 °F 90% 29.92 in 1.2 mi North 31.1 mph 39.1 mph N/A Snow Light Snow